Location: Unspecified
(0.0000°N, 0.0000°E)
Time: 15:18:04
(UTC+00:00)

deb Delta 126 - Pass Details

Date: 23 February 2026
Orbit: 1458 x 1580 km, 101.9° (Epoch: 6 March)

Event Time Altitude Azimuth Distance (km) Brightness Sun altitude
Rises 02:14:12 0° 45° (NE) 4,757 ? -58.4°
Reaches altitude 10° 02:17:52 10° 58° (ENE) 3,774 ? -57.5°
Enters shadow 02:20:08 16° 71° (ENE) 3,287 ? -57.0°
Exits shadow 02:24:46 23° 110° (ESE) 2,850 ? -55.9°
Drops below altitude 10° 02:31:00 10° 155° (SSE) 3,748 ? -54.4°
Sets 02:34:34 0° 169° (SSE) 4,717 ? -53.5°
